STARLINK-34127, 63810

Orbit data source: Space-Track

STARLINK-34127, 63810 is a payload satellite owned by SpaceX/Seattle (US) in LEO that was launched on Sun, 04 May 2025 UTC via an FALCON 9 launch vehicle from the Air Force Eastern Test Range (AFETR). Payload-class satellites include a variety of spacecraft equipped with specific instruments for various scientific and technological missions. These include communications satellites like Starlink; space stations such as the ISS; scientific satellites like the Hubble; Earth observation satellites from companies like Planet Labs, Umbra, and HawkEye 360; GPS; miniature CubeSats for education and research; and military/defense satellites.

Loading next visibility...
Identifier
63810, 2025-092G
Orbit
LEO
Country
Flag of USUS
Related business
Manufacturer
SpaceX/Seattle
Mission
Operational spacecraft
Bus & Motor
STARLINK V2MO, Unknown motor
Mass
575 kg wet, ~530 kg dry
Launch date (UTC)
2025-05-04 (9 months ago)
Launch vehicle
FALCON 9
Launch site
Air Force Eastern Test Range (AFETR)
Object type
Payload
Rocket body
Debris
Shape & HBR
Unknown shape, 17.7 m
Radar Cross Section
Large (>1 m²)

Expand to show TLE details & history
Last TLE update: 13 hours ago

TLE from 13 hours ago
0 STARLINK-34127
1 63810U 25092G   26034.60763637  .00047790  00000-0  17352-2 0  9996
2 63810  42.9948   4.9051 0001893  54.3839 305.7189 15.27574743 43407
Epoch: 2026-02-03T14:34Z
TLE epoch observation values (Epoch: 2026-02-03T14:34:59.782Z)
Latitude
Longitude
12.36988°
Altitude
482.082 km
Speed
7.627 km/s
True Right ascension
00h 19m 37s
True Declination
0° 00' 00"
Sunlit
Object was in daylight at epoch
Visualization orbit readout
Latitude
Unknown
Longitude
Unknown
Altitude
Unknown
Speed
Unknown
Apparent Right ascension
Unknown
Apparent Declination
Unknown
Sunlit
N/A
Visualization observer readout
Local Sidereal Time
05:40:00
Azimuth
Unknown
Elevation
Unknown
Doppler factor
Unknown
Orbital elements
Apogee altitude
486.31 km
Perigee altitude
483.712 km
Semi-major axis
6,863.148 km
Eccentricity
0.00019
Inclination
42.9948°
RAAN
4.9051°
Arg. of periapsis
54.3839°
True anomaly
305.70129°
Mean anomaly
305.7189°
Eccentric anomaly
305.71009°
Mean motion
3.81732 °/min
Orbital period
94.31 mins
BSTAR
0.0017352
Loading maneuver chart data...
Computing Atmospheric mass density...
Loading historical data...
Loading historical data...
Loading historical data...
Loading historical data...
Loading historical data...
Loading historical data...
Loading historical data...

Documentation

Showing up to 5 results
|